Probability
0 0 0 0 0 0 0 0 0 0 0 0 0 0 0 0 0 0 0 0 0 0 0 0 0 0 0 0 0 0 0 0 0 0 0 0 0 0 0 0 0 0 0
0 0 0 0 0 0 0 0 0 0 0 0 0 0 0 0 0 0 0 0 0 0 0 0 0 0 0 0 0 0 0 0 0 0 0 0 0 0 0 0 0 0 0
0 0 0 0 0 0 0 0 0 0 0 0 0 0 0 0 0 0 0 0 0 0 0 0 0 0 0 0 0 0 0 0 0 0 0 0 0 0 0 0 0 0 0
0 0 0 0 0 0 0 0 0 0 0 0 0 0 0 0 0 0 0 0 0 0 0 0 0 0 0 0 0 0 0 0 0 0 0 0 0 0 0 0 0 0 0
0 0 0 0 0 0 0 0 0 0 0 0 0 0 0 0 0 0 0 0 0 0 0 0 0 0 0 0 0 0 0 0 0 0 0 0 0 0 0 0 0 0 0
0 0 0 0 0 0 0 0 0 0 0 0 0 0 0 0 0 0 0 0 0 0 0 0 0 0 0 0 0 0 0 0 0 0 0 0 0 0 0 0 0 0 0
0 0 0 0 0 0 0 0 0 0 0 0 0 0 0 0 0 0 0 0 0 0 0 0 0 0 0 0 0 0 0 0 0 0 0 0 0 0 0 0 0 0 0
0 0 0 0 0 0 0 0 0 0 0 0 0 0 0 0 0 0 0 0 0 0 0 0 0 0 0 0 0 0 0 0 0 0 0 0 0 0 0 0 0 0 0
0 0 0 0 0 0 0 0 0 0 0 0 0 0 0 0 0 0 0 0 0 0 0 0 0 0 0 0 0 0 0 0 0 0 0 0 0 0 0 0 0 0 0
0 0 0 0 0 0 0 0 0 0 0 0 0 0 0 0 0 0 0 0 0 0 0 0 0 0 0 0 0 0 0 0 0 0 0 0 0 0 0 0 0 0 0
0 0 0 0 0 0 0 0 0 0 0 0 0 0 0 0 0 0 0 0 0 0 0 0 0 0 0 0 0 0 0 0 0 0 0 0 0 0 0 0 0 0 0
0 0 0 0 0 0 0 0 0 0 0 0 0 0 0 0 0 0 0 0 0 0 0 0 0 0 0 0 0 0 0 0 0 0 0 0 0 0 0 0 0 0 0
0 0 0 0 0 0 0 0 0 0 0 0 0 0 0 0 0 0 0 0 0 0 0 0 0 0 0 0 0 0 0 0 0 0 0 0 0 0 0 0 0 0 0
0 0 0 0 0 0 0 0 0 0 0 0 0 0 0 0 0 0 0 0 0 0 0 0 0 0 0 0 0 0 0 0 0 0 0 0 0 0 0 0 0 0 0
0 0 0 0 0 0 0 0 0 0 0 0 0 0 0 0 0 0 0 0 0 0 0 0 0 0 0 0 0 0 0 0 0 0 0 0 0 0 0 0 0 0 0
0 0 0 0 0 0 0 0 0 0 0 0 0 0 0 0 0 0 0 0 0 0 0 0 0 0 0 0 0 0 0 0 0 0 0 0 0 0 0 0 0 0 0
0 0 0 0 0 0 0 0 0 0 0 0 0 0 0 0 0 0 0 0 0 0 0 0 0 0 0 0 0 0 0 0 0 0 0 0 0 0 0 0 0 0 0
0 0 0 0 0 0 0 0 0 0 0 0 0 0 0 0 0 0 0 0 0 0 0 0 0 0 0 0 0 0 0 0 0 0 0 0 0 0 0 0 0 0 0
0 0 0 0 0 0 0 0 0 0 0 0 0 0 0 0 0 0 0 0 0 0 0 0 0 0 0 0 0 0 0 0 0 0 0 0 0 0 0 0 0 0 0
0 0 0 0 0 0 0 0 0 0 0 0 0 0 0 0 0 0 0 0 0 0 0 0 0 0 0 0 0 0 0 0 0 0 0 0 0 0 0 0 0 0 0
0 0 0 0 0 0 0 0 0 0 0 0 0 0 0 0 0 0 0 0 0 0 0 0 0 0 0 0 0 0 0 0 0 0 0 0 0 0 0 0 0 0 0
0 0 0 0 0 0 0 0 0 0 0 0 0 0 0 0 0 0 0 0 0 0 0 0 0 0 0 0 0 0 0 0 0 0 0 0 0 0 0 0 0 0 0
0 0 0 0 0 0 0 0 0 0 0 0 0 0 0 0 0 0 0 0 0 0 0 0 0 0 0 0 0 0 0 0 0 0 0 0 0 0 0 0 0 0 0
0 0 0 0 0 0 0 0 0 0 0 0 0 0 0 0 0 0 0 0 0 0 0 0 0 0 0 0 0 0 0 0 0 0 0 0 0 0 0 0 0 0 0
0 0 0 0 0 0 0 0 0 0 0 0 0 0 0 0 0 0 0 0 0 0 0 0 0 0 0 0 0 0 0 0 0 0 0 0 0 0 0 0 0 0 0
0 0 0 0 0 0 0 0 0 0 0 0 0 0 0 0 0 0 0 0 0 0 0 0 0 0 0 0 0 0 0 0 0 0 0 0 0 0 0 0 0 0 0
Height
5718 5716 5714 5712 5711 5709 5708 5706 5705 5703 5702 5701 5699 5698 5696 5694 5692 5690 5689 5688 5688 5690 5693 5696 5698 5700 5703 5706 5708 5710 5712 5715 5717 5720 5722 5725 5726 5728 5730 5731 5733 5734 5735
5709 5707 5704 5702 5700 5699 5697 5696 5694 5692 5691 5689 5688 5686 5684 5682 5679 5677 5675 5674 5674 5676 5678 5681 5684 5686 5688 5690 5693 5696 5699 5701 5703 5705 5708 5710 5714 5715 5717 5718 5720 5721 5722
5699 5697 5694 5692 5690 5689 5687 5685 5683 5681 5679 5677 5675 5673 5671 5668 5666 5664 5662 5661 5661 5662 5665 5667 5670 5672 5674 5677 5679 5681 5684 5687 5689 5690 5693 5695 5699 5701 5704 5705 5706 5707 5709
5690 5687 5684 5682 5680 5678 5676 5674 5672 5670 5668 5665 5663 5660 5658 5656 5654 5651 5650 5649 5648 5649 5652 5654 5656 5658 5660 5662 5664 5666 5669 5672 5675 5677 5679 5681 5683 5686 5689 5692 5693 5694 5695
5681 5677 5674 5672 5669 5668 5666 5664 5662 5659 5656 5653 5650 5647 5645 5643 5641 5639 5638 5637 5637 5637 5638 5641 5642 5644 5646 5648 5650 5653 5656 5658 5661 5663 5665 5667 5669 5671 5674 5678 5680 5681 5682
5671 5668 5665 5662 5660 5658 5656 5654 5652 5649 5646 5643 5639 5636 5633 5631 5629 5627 5626 5625 5625 5624 5625 5627 5628 5630 5631 5634 5636 5640 5642 5645 5648 5650 5652 5654 5656 5658 5659 5662 5665 5667 5669
5662 5658 5655 5653 5650 5649 5647 5645 5643 5640 5637 5633 5629 5626 5622 5620 5618 5616 5615 5614 5613 5613 5613 5614 5614 5616 5618 5620 5623 5626 5630 5633 5635 5638 5640 5641 5643 5644 5645 5647 5649 5652 5655
5653 5650 5647 5645 5642 5640 5638 5637 5634 5631 5628 5624 5620 5616 5613 5610 5608 5606 5605 5604 5603 5602 5602 5603 5603 5604 5605 5608 5610 5614 5618 5621 5623 5625 5627 5628 5630 5631 5632 5634 5635 5637 5640
5645 5642 5640 5638 5635 5633 5631 5629 5626 5623 5619 5616 5612 5609 5605 5602 5600 5598 5596 5595 5594 5593 5592 5592 5592 5593 5594 5596 5599 5602 5606 5609 5611 5613 5615 5616 5618 5619 5620 5621 5622 5624 5626
5638 5635 5633 5631 5629 5626 5624 5621 5618 5615 5612 5608 5605 5602 5599 5596 5593 5591 5589 5587 5585 5584 5583 5583 5583 5584 5585 5587 5589 5592 5595 5598 5601 5602 5604 5605 5606 5607 5608 5609 5610 5611 5613
5632 5629 5627 5625 5623 5620 5617 5615 5612 5609 5605 5602 5598 5596 5593 5590 5587 5584 5582 5580 5578 5576 5575 5575 5575 5575 5577 5579 5581 5583 5585 5588 5590 5592 5593 5594 5595 5595 5596 5597 5598 5600 5601
5626 5623 5622 5619 5617 5615 5612 5609 5606 5603 5600 5596 5593 5590 5587 5584 5581 5578 5576 5573 5571 5569 5567 5567 5567 5567 5569 5571 5572 5574 5576 5578 5580 5582 5583 5584 5584 5585 5586 5586 5588 5589 5591
5621 5619 5617 5614 5612 5609 5606 5603 5601 5598 5595 5591 5588 5585 5582 5579 5576 5573 5570 5568 5565 5562 5561 5560 5560 5560 5562 5563 5565 5566 5568 5569 5571 5572 5573 5574 5575 5575 5576 5577 5578 5579 5581
5617 5615 5612 5610 5607 5604 5602 5599 5596 5593 5590 5587 5583 5580 5577 5574 5571 5568 5565 5562 5559 5557 5555 5554 5554 5554 5555 5556 5558 5559 5560 5561 5562 5563 5564 5565 5566 5566 5567 5568 5569 5570 5571
5612 5610 5608 5605 5603 5600 5597 5594 5591 5588 5586 5583 5579 5576 5572 5569 5566 5563 5560 5557 5554 5551 5549 5548 5548 5548 5549 5550 5551 5551 5552 5553 5554 5555 5556 5556 5557 5557 5558 5559 5560 5561 5562
5608 5606 5604 5601 5598 5595 5592 5589 5587 5584 5582 5579 5576 5572 5569 5565 5562 5558 5555 5552 5549 5547 5545 5543 5543 5543 5543 5543 5543 5543 5544 5545 5546 5547 5547 5548 5549 5550 5550 5550 5551 5552 5553
5603 5602 5599 5596 5593 5591 5588 5585 5582 5580 5578 5575 5572 5569 5565 5562 5558 5554 5551 5548 5545 5543 5540 5539 5538 5538 5537 5537 5536 5536 5536 5537 5538 5538 5539 5540 5541 5541 5542 5542 5542 5543 5544
5598 5596 5594 5592 5589 5586 5583 5581 5578 5576 5574 5571 5568 5565 5562 5558 5555 5551 5547 5544 5541 5539 5536 5535 5533 5532 5532 5530 5529 5529 5529 5530 5530 5531 5531 5531 5532 5532 5532 5533 5534 5534 5534
5591 5589 5587 5586 5584 5581 5579 5577 5575 5572 5569 5566 5564 5561 5557 5554 5551 5547 5543 5540 5537 5535 5532 5531 5529 5527 5526 5524 5523 5522 5523 5523 5523 5523 5523 5523 5524 5524 5523 5524 5525 5525 5525
5585 5583 5581 5580 5578 5576 5574 5572 5570 5567 5564 5562 5559 5556 5553 5549 5546 5543 5539 5536 5533 5530 5528 5526 5523 5522 5520 5518 5516 5516 5516 5516 5515 5515 5515 5515 5515 5514 5514 5515 5516 5517 5517
5578 5576 5575 5574 5572 5570 5568 5566 5564 5562 5559 5556 5554 5551 5548 5545 5541 5537 5534 5531 5528 5525 5522 5520 5518 5515 5513 5511 5510 5509 5508 5507 5507 5507 5507 5506 5506 5506 5506 5506 5507 5508 5509
5571 5569 5568 5567 5565 5564 5562 5560 5558 5556 5553 5551 5548 5545 5542 5539 5535 5532 5528 5525 5521 5519 5516 5514 5511 5509 5506 5504 5502 5501 5500 5499 5499 5499 5498 5498 5497 5497 5498 5498 5499 5500 5501
5562 5562 5561 5560 5558 5557 5555 5554 5552 5550 5547 5545 5542 5539 5536 5532 5529 5525 5522 5519 5515 5512 5509 5507 5504 5502 5500 5497 5495 5493 5492 5491 5491 5490 5490 5490 5490 5490 5490 5490 5491 5492 5493
5554 5554 5553 5552 5551 5550 5548 5546 5545 5543 5541 5538 5535 5532 5529 5526 5522 5518 5515 5512 5508 5505 5502 5500 5497 5495 5493 5490 5487 5486 5485 5484 5483 5483 5482 5482 5482 5482 5483 5483 5484 5484 5485
5546 5546 5545 5545 5544 5542 5541 5539 5537 5535 5533 5530 5528 5525 5521 5518 5514 5511 5507 5504 5501 5497 5495 5492 5489 5486 5485 5482 5480 5478 5478 5476 5476 5475 5475 5475 5475 5475 5476 5476 5476 5477 5477
5537 5537 5537 5536 5535 5534 5533 5531 5529 5527 5525 5522 5519 5516 5513 5510 5506 5503 5500 5496 5493 5489 5486 5482 5480 5477 5476 5474 5472 5471 5470 5469 5468 5468 5468 5468 5468 5469 5469 5469 5470 5470 5470
Wind_Speed
30 30 31 32 33 33 34 34 35 36 37 38 39 40 41 42 44 46 47 49 50 50 50 50 51 51 52 52 52 52 52 54 53 53 53 52 52 50 50 50 49 49 49
30 30 31 32 32 32 33 33 34 35 37 38 39 39 40 42 44 44 45 46 47 48 49 50 50 50 51 51 52 52 53 54 54 54 54 54 53 52 51 51 51 51 50
30 30 31 32 32 32 33 33 34 35 37 38 39 40 41 41 42 42 42 43 45 46 47 49 48 49 50 51 52 52 53 53 54 54 54 54 54 53 51 51 52 52 51
30 30 30 30 31 32 32 32 33 34 36 37 38 39 40 40 40 40 40 42 44 45 46 47 47 48 50 50 51 50 51 51 52 53 53 54 54 53 52 51 51 50 50
29 29 29 29 30 30 31 31 32 33 34 35 36 37 38 38 39 39 39 40 42 44 46 46 47 48 49 50 51 50 49 49 50 51 52 53 53 53 53 51 50 49 49
28 28 28 28 29 29 30 30 31 32 32 33 34 35 36 36 37 37 37 38 40 42 44 47 47 48 48 48 48 49 48 48 48 48 50 51 51 51 52 52 50 49 49
27 27 27 27 27 27 29 29 30 31 31 32 33 33 33 34 35 36 35 37 38 39 40 43 44 46 47 46 46 47 47 45 45 46 48 48 49 50 50 51 51 50 49
27 27 27 26 25 26 27 28 29 30 30 31 31 32 31 32 33 33 34 35 36 37 37 39 40 42 43 45 44 44 44 43 43 44 45 45 46 47 48 49 50 49 48
27 26 25 25 25 25 27 28 29 29 30 30 31 30 30 30 31 32 33 34 34 35 36 37 38 37 39 41 42 41 41 41 42 41 41 42 42 44 45 46 46 47 46
26 25 24 24 25 25 26 28 29 28 28 28 28 28 27 28 28 29 30 31 32 33 34 33 34 35 36 37 39 38 38 39 40 40 40 40 42 42 43 44 45 45 45
25 24 23 23 24 26 26 27 28 27 27 27 27 26 26 26 27 27 28 30 32 32 32 31 31 31 32 33 35 36 36 37 38 38 39 39 41 40 41 43 43 42 43
24 23 22 23 24 25 26 26 26 26 27 27 26 25 25 25 25 25 26 27 29 30 30 30 29 30 30 31 32 34 35 35 36 36 37 37 37 38 39 39 39 39 40
23 22 22 23 23 24 25 25 25 25 26 25 25 24 24 24 24 25 26 26 27 28 27 27 28 28 29 30 30 32 33 33 34 35 34 35 35 35 36 36 36 37 38
22 22 22 22 22 23 24 23 23 24 24 24 24 24 24 24 25 25 26 26 26 26 25 25 26 26 27 28 30 30 31 31 32 33 32 32 33 33 35 35 35 36 36
21 22 22 22 22 22 22 22 22 22 21 22 22 23 23 24 25 25 25 26 25 24 24 24 24 24 26 27 29 29 30 29 30 30 31 32 32 32 33 33 34 34 35
22 22 22 21 22 21 21 21 21 21 22 22 23 22 24 24 25 25 25 24 24 23 22 22 23 24 24 25 27 28 29 29 28 29 31 32 32 31 31 32 33 33 34
22 22 21 21 21 20 21 22 22 22 22 23 24 23 24 25 25 25 25 24 22 22 21 21 22 23 24 26 27 28 28 28 28 29 30 31 30 31 31 32 32 33 33
24 23 23 23 22 23 23 23 22 22 22 23 24 24 25 25 25 24 24 23 22 21 21 21 22 23 25 26 26 26 25 27 28 28 28 28 29 30 32 33 32 32 32
25 26 25 24 24 23 23 23 23 22 22 23 23 23 24 24 25 25 25 24 22 22 22 22 22 23 24 25 26 26 26 26 27 27 28 29 30 31 32 31 30 30 30
26 25 24 24 23 23 23 23 23 24 24 23 23 23 24 24 25 26 25 24 24 24 23 23 24 25 25 25 26 26 27 27 27 28 29 29 30 30 30 29 29 28 28
25 25 25 25 24 24 24 24 25 25 24 24 24 24 25 25 26 26 25 26 26 25 25 25 26 26 26 27 27 27 28 28 28 28 29 29 28 28 27 28 27 27 27
26 26 26 25 25 25 25 25 25 25 25 25 25 26 26 27 28 27 27 27 27 27 27 27 27 27 27 28 28 29 29 28 28 28 28 28 27 26 26 26 26 26 26
27 27 26 25 25 25 25 25 26 26 26 27 27 27 28 29 30 29 29 29 28 27 28 28 28 28 28 29 29 29 28 28 27 27 27 26 25 25 25 25 25 25 25
27 26 26 26 25 25 25 26 27 27 27 27 28 29 30 31 31 30 30 30 30 30 30 30 30 29 28 28 28 27 26 26 25 25 25 25 25 24 25 25 25 25 24
27 26 25 25 25 25 26 27 28 28 29 29 30 31 31 32 31 31 31 32 32 32 32 32 31 30 29 28 27 27 25 24 24 24 23 22 22 22 22 23 23 23 23
28 27 27 27 27 26 27 28 29 30 30 31 32 32 33 32 32 32 33 33 34 35 34 33 32 31 29 28 27 26 25 24 23 22 21 21 20 20 20 21 21 22 22
Wind_Direction
278 277 277 277 277 277 277 277 276 275 274 275 273 273 274 274 273 271 268 265 263 261 259 259 258 258 258 258 258 257 257 258 257 258 258 259 260 260 260 261 262 264 265
280 280 279 279 279 278 278 277 277 276 276 276 276 275 275 276 275 273 269 265 262 261 260 259 259 259 259 259 258 258 258 258 258 258 259 259 259 259 260 261 262 263 265
283 282 281 280 279 279 280 279 279 278 278 277 277 276 278 278 276 272 270 267 264 261 260 258 258 259 259 259 258 258 257 258 258 259 259 260 259 259 260 261 262 263 264
286 286 284 282 280 281 282 282 281 282 282 280 279 278 278 279 277 273 271 269 265 262 260 259 260 260 260 259 258 258 257 258 259 259 260 261 261 260 259 260 262 263 264
289 289 287 284 282 283 284 283 284 285 284 283 282 280 280 280 278 274 273 270 267 263 261 261 261 261 259 259 258 257 257 257 260 260 261 261 262 261 261 260 261 262 264
292 291 289 286 286 286 286 284 285 285 285 286 285 284 283 280 278 276 274 271 269 265 262 262 261 261 260 259 258 257 257 259 260 261 261 262 262 263 262 261 261 261 262
295 293 291 289 288 287 286 285 287 289 290 291 288 288 285 282 280 276 274 272 271 268 264 265 264 262 261 259 259 257 257 259 260 261 261 262 262 262 262 262 261 261 261
294 290 290 290 290 291 290 288 290 292 294 294 292 291 287 284 280 277 277 275 273 270 267 268 267 264 263 260 258 255 256 258 259 261 262 263 263 263 262 262 261 261 260
293 291 290 290 292 292 293 294 293 294 296 295 294 291 290 286 282 279 278 276 275 274 273 270 268 268 264 261 259 256 257 257 258 261 263 263 264 264 263 262 261 260 259
293 291 290 289 291 294 295 297 297 297 298 298 297 295 292 289 287 283 281 279 277 276 276 271 270 269 267 263 259 258 258 258 259 261 262 263 264 264 264 263 261 260 260
294 290 290 291 293 297 299 300 299 298 298 299 298 295 293 293 291 287 284 282 281 280 276 273 272 271 267 263 262 260 258 259 261 263 264 265 266 266 265 264 261 260 261
295 290 291 294 295 298 301 300 300 300 301 301 301 297 297 295 294 292 290 289 286 282 278 275 274 271 267 265 264 261 260 260 262 264 264 264 266 267 265 263 262 261 261
293 291 292 296 297 299 302 301 300 300 301 302 303 301 299 297 296 295 294 294 292 287 282 279 275 270 265 264 266 266 262 262 264 264 264 264 265 266 263 262 262 263 263
291 292 294 296 298 301 302 301 300 300 301 302 303 303 301 299 298 296 296 298 296 290 286 282 276 270 266 266 268 269 266 264 264 264 264 265 266 265 263 263 263 264 264
292 293 294 297 300 301 301 302 300 301 302 303 305 304 305 304 301 299 299 300 298 294 289 284 278 271 269 269 270 270 268 266 265 263 262 265 266 266 265 264 264 265 265
294 295 295 297 299 301 304 304 302 302 302 304 306 308 309 308 307 304 305 303 299 295 292 284 276 272 274 273 272 273 271 268 265 262 263 265 266 265 265 265 266 267 267
293 294 295 295 297 301 305 305 302 299 300 302 305 307 308 307 307 308 309 305 298 295 291 284 277 276 277 275 276 275 273 270 267 265 264 263 264 265 265 265 268 269 268
289 291 293 293 295 299 300 301 302 298 298 300 302 303 306 307 308 310 310 305 300 295 292 288 284 282 280 278 278 276 275 274 271 268 267 268 269 268 267 267 268 270 270
288 289 290 292 294 296 297 297 299 298 298 299 301 303 305 307 307 309 307 305 300 295 291 289 286 286 284 283 281 278 277 276 274 272 273 272 271 270 269 268 269 271 271
285 287 288 290 293 294 295 296 297 299 299 299 301 303 304 305 306 307 305 303 300 295 292 291 291 290 287 284 282 278 278 278 276 275 275 274 272 271 268 268 269 271 270
282 284 286 287 290 291 292 294 296 297 298 299 300 302 303 304 305 305 304 302 300 296 293 291 292 290 287 285 283 281 280 279 277 275 274 274 273 272 270 270 270 270 268
280 282 283 283 285 288 289 291 293 295 296 297 298 299 300 302 303 303 303 302 299 296 294 292 291 289 287 286 284 283 282 280 278 277 276 276 274 271 270 269 269 268 267
278 280 280 280 282 285 287 289 291 292 293 293 295 296 298 299 301 301 302 302 301 297 295 294 292 289 288 286 284 282 280 278 277 277 277 276 273 271 271 269 268 268 268
276 277 278 278 280 283 284 286 288 290 290 290 292 294 296 297 297 298 300 300 299 297 295 294 292 290 288 286 284 281 279 277 276 278 277 274 272 271 270 269 269 270 270
274 275 276 278 279 281 284 286 289 290 291 292 293 295 296 296 295 296 297 298 297 297 295 293 290 289 286 283 281 280 279 279 279 277 275 274 273 271 270 271 272 270 270
271 273 276 277 279 281 284 286 288 290 291 292 294 295 295 295 294 294 295 297 298 296 294 292 290 288 284 281 279 278 278 278 277 275 273 271 271 271 271 270 271 272 271